Location: Alameda Bridge
(35.1975°N, 106.6423°W)
Time: 06:40:49
(UTC+00:00)

Daily predictions for brighter satellites

Satellite Brightness Start Highest point End
(mag) Time Altitude Azimuth Time Altitude Azimuth Time Altitude Azimuth
Cosmos 2237 Rocket 3.2 12:04:11 10° S 12:09:31 45° ESE 12:14:54 10° NE
Cosmos 2333 Rocket 3.2 12:13:27 30° NNW 12:13:27 30° NNW 12:16:42 10° N
GPS 2-04 Rocket1 3.0 12:13:17 66° SE 12:13:17 66° SE 12:17:00 10° ESE
deb Chang Zheng 4 3.6 12:10:22 10° NNE 12:14:37 74° ESE 12:18:49 10° S
Cosmos 2219 Rocket 2.9 12:17:16 36° NNW 12:17:16 36° NNW 12:21:03 10° N
Cosmos 1953 3.3 12:19:02 10° SSE 12:22:51 46° E 12:26:40 10° NNE
FALCON 9 DEB 3.9 12:25:36 45° NNE 12:25:36 45° NNE 12:28:04 10° NE
COSMOS 2428 3.0 12:30:54 40° WNW 12:31:06 40° WNW 12:36:26 10° N
Cosmos 1461 3.2 12:30:57 51° W 12:31:29 54° WNW 12:36:09 10° NNE
Cosmos 468 Rocket 4.1 12:31:23 36° WSW 12:32:56 48° WNW 12:38:02 10° N
Cosmos 1892 Rocket 3.4 12:31:19 21° N 12:34:09 79° W 12:38:32 10° S
ERS-2 2.3 12:31:37 10° SSE 12:35:14 72° ENE 12:37:40 20° N
GEOS 3 Rocket 4.1 12:30:29 10° SE 12:35:43 60° NE 12:40:17 14° NNW
Meteor PRIRODA 3.4 12:36:06 10° N 12:39:42 68° WNW 12:43:17 10° SSW
Cosmos 1814 Rocket 4.5 12:36:34 10° S 12:41:37 62° ESE 12:46:40 10° NNE
Cosmos 1980 3.6 12:36:24 10° SSW 12:42:04 85° WNW 12:47:45 10° NNE
Cosmos 921 Rocket 3.4 12:43:58 37° NW 12:43:58 37° NW 12:47:30 10° N
COSMO-SKYMED 1 2.5 12:39:53 10° S 12:44:09 60° WSW 12:47:21 18° NNW
Cosmos 1937 Rocket 4.0 12:39:55 10° N 12:45:09 61° ENE 12:50:18 10° SSE
CZ-3A R/B 4.5 12:41:05 17° WSW 12:48:52 33° SSW 12:55:58 10° SE
Envisat 3.1 12:45:27 10° NNE 12:50:32 76° ESE 12:55:36 10° S
SJ 16-02 2.2 12:52:18 28° W 12:52:18 28° W 12:55:58 10° SSW
CZ-2C R/B 1.7 12:59:14 17° WSW 13:02:15 56° SSE 13:06:04 10° E
Cosmos 1544 Rocket 3.7 12:58:55 10° SSW 13:03:04 47° W 13:07:14 10° N
CZ-4B R/B 3.4 13:00:46 10° NNW 13:03:54 28° WNW 13:07:05 10° SW
IUS R/B (1) 4.0 13:03:02 10° SSW 13:04:31 15° S 13:05:58 10° SE
USA 276 2.8 13:05:16 28° W 13:06:19 38° SW 13:09:15 10° SSE
CZ-4B R/B 3.1 13:05:03 10° SW 13:06:46 18° WSW 13:06:46 18° WSW
Lacrosse 4 Rocket 2.0 13:05:47 10° SSW 13:09:52 61° ESE 13:14:05 10° NNE
Meteor 1-16 Rocket 4.3 13:04:13 10° SSW 13:10:00 70° W 13:15:56 10° N
Cosmos 1703 3.5 13:08:28 10° N 13:12:21 71° E 13:16:14 10° SSE
Okean 1-7 Rocket 4.0 13:10:49 10° NNW 13:15:05 41° W 13:19:17 10° SSW
Cosmos 1340 3.0 13:11:57 10° N 13:15:41 66° E 13:19:24 10° SSE
Cosmos 540 Rocket 3.9 13:12:13 10° SW 13:16:57 38° WNW 13:21:43 10° N
NOSS 0 Rocket 4.4 13:11:26 10° SW 13:17:05 37° WNW 13:22:47 10° N
OAO 1 Rocket 4.4 13:13:50 15° W 13:18:19 89° S 13:23:39 10° E
Cosmos 1689 Rocket 2.6 13:15:42 10° SSW 13:18:25 36° W 13:21:07 10° NNW
Lacrosse 5 rocket 3.3 13:16:54 10° N 13:19:44 19° NE 13:22:29 10° E
BREEZE M DEB (TANK) 1.7 13:20:28 18° W 13:21:47 40° NNW 13:24:42 10° NE
MOS 1 Rocket 4.0 13:17:18 10° SSW 13:22:03 37° W 13:26:35 10° NNW
Gbstr 26 Del rocket 4.5 13:15:09 10° WSW 13:22:33 68° NW 13:30:42 10° NE
SAR-Lupe-4 4.3 13:20:36 10° SSW 13:23:48 32° W 13:27:03 10° NW
Cosmos 44 Rocket 3.5 13:20:52 10° NNW 13:26:08 87° ENE 13:31:18 10° SSE
Cosmos 1626 Rocket 3.6 13:22:47 10° NNW 13:27:12 61° W 13:31:35 10° S
H-2A R/B 3.9 13:24:27 10° NNW 13:27:15 21° WNW 13:30:03 10° WSW
Cosmos 2228 3.9 13:24:53 10° S 13:29:02 53° E 13:33:10 10° NNE
Cosmos 1400 Rocket 3.2 13:28:01 10° SSW 13:31:53 42° WNW 13:35:48 10° N
Atlas Centaur 2 3.5 13:26:25 10° WSW 13:34:30 63° S 13:42:52 10° E
Cosmos 1328 3.7 13:33:44 10° N 13:37:40 77° W 13:41:33 10° S
SL-4 R/B 1.9 13:35:46 10° WSW 13:39:26 58° NW 13:43:27 10° NE
SL-16 R/B 2.2 13:34:37 10° SSW 13:40:15 86° WNW 13:45:57 10° NNE
OAO 2 Rocket 3.3 13:38:20 10° W 13:43:16 85° S 13:48:13 10° E
Chandra Rocket (1) 3.0 13:41:10 10° WSW 13:43:53 22° S 13:45:55 10° SE
CZ-4B R/B 3.3 13:41:37 10° N 13:47:17 81° WNW 13:52:51 10° SSW
NOSS 3-2 (A) 3.3 13:41:54 10° SW 13:47:21 68° WNW 13:53:30 10° NNE
Cosmos 2278 Rocket 2.6 13:42:27 10° NW 13:47:46 42° WSW 13:53:04 10° S
Cosmos 1758 Rocket 3.7 13:44:28 10° N 13:48:59 87° E 13:53:26 10° S
H-2A R/B 2.9 13:45:10 10° N 13:49:28 47° WNW 13:53:47 10° SSW
Okean O Rocket 1.6 13:46:15 10° N 13:50:36 70° WNW 13:54:54 10° SSW
SMAP 3.2 13:46:20 10° N 13:50:50 50° WNW 13:55:19 10° SSW
PAYLOAD B 4.4 13:46:03 10° N 13:51:26 51° WNW 13:56:49 10° SW
